Regional Weather Roundup
Issued by NWS Cleveland, OH

Home | Current Version | Previous Version | Graphics & Text | Print | Product List | Glossary On
Versions: 1 2 3 4 5 6 7 8 9 10 11 12 13 14 15 16 17 18 19 20 21 22 23 24 25 26 27 28 29 30 31 32 33 34 35 36 37 38 39 40 41 42 43 44 45 46 47 48 49 50
000
ASUS41 KCLE 192202
RWRCLE
OHIO REGIONAL WEATHER ROUNDUP
NATIONAL WEATHER SERVICE CLEVELAND, OH
500 PM EST THU JAN 19 2017

NOTE: "FAIR" INDICATES FEW OR NO CLOUDS BELOW 12,000 FEET WITH NO
SIGNIFICANT WEATHER AND/OR OBSTRUCTIONS TO VISIBILITY.

OHZ001>008-015>018-024>027-034-035-043-044-192300-
   NORTHWEST OHIO

CITY           SKY/WX    TMP DP  RH WIND       PRES   REMARKS
DEFIANCE       CLOUDY    37  34  89 E5        29.95F
FINDLAY        CLOUDY    41  35  79 SE6       29.94F
TOLEDO EXPRESS CLOUDY    39  36  89 CALM      29.96F
TOLEDO EXEC    MOCLDY    39  36  89 S5        29.97F
LIMA           MOCLDY    41  38  89 SE7       29.94S
$$

OHZ009>014-019>023-028>033-038-089-192300-
   NORTHEAST OHIO

CITY           SKY/WX    TMP DP  RH WIND       PRES   REMARKS
CLE-HOPKINS    CLOUDY    41  34  76 SE7       30.00F
CLE-LAKEFRONT  PTCLDY    36  33  89 NE7       29.98F
CUY CO. ARPT   PTCLDY    43  36  75 SW7       30.00S
LORAIN-ELYRIA  CLOUDY    40  34  79 SE5       29.98F
ASHTABULA      MOCLDY    39  35  86 SE5       30.01R
AKRON-CANTON   CLOUDY    39  33  79 SE8       29.98F
WOOSTER        CLOUDY    38  34  85 S7        29.98F
MANSFIELD      PTCLDY    40  35  83 SE10      29.95F
YOUNGSTOWN     CLOUDY    40  33  76 SW8       30.00S
$$

OHZ042-051>053-060>062-070>072-077>081-192300-
  SOUTHWEST OHIO

CITY           SKY/WX    TMP DP  RH WIND       PRES   REMARKS
CINC-COVINGTON CLOUDY    49  41  74 E9        29.89F
CINC-LUNKEN    CLOUDY    51  40  65 E5        29.92F
HAMILTON       MOCLDY    49  41  74 E8        29.92F
DAYTON         CLOUDY    44  39  82 SE10      29.93F
WRIGHT-PAT AFB NOT AVBL
DAYTON GENERAL CLOUDY    48  40  73 E7        29.91S
WILMINGTON     CLOUDY    48  40  73 E5        29.93S
$$

OHZ036-037-039>041-045>050-054>059-063>069-073>076-082>088-192300-
  CENTRAL AND SOUTHEAST OHIO

CITY           SKY/WX    TMP DP  RH WIND       PRES   REMARKS
COLUMBUS       CLOUDY    44  36  73 SE10      29.97R
OSU AIRPORT    CLOUDY    43  37  79 SE6       29.96R
BOLTON FIELD   NOT AVBL
RICKENBACK AFB NOT AVBL
NEWARK         CLOUDY    43  36  76 SE7       29.97S
MARION         CLOUDY    41  36  82 S7        29.95S
LANCASTER      PTCLDY    45  37  73 E8        29.97S
ZANESVILLE     CLOUDY    42  36  79 SE8       29.98F
NEW PHILLY     NOT AVBL
$$




USA.gov is the U.S. government's official web portal to all federal, state and local government web resources and services.